Time,TemperatureF,DewpointF,PressureIn,WindDirection,WindDirectionDegrees,WindSpeedMPH,WindSpeedGustMPH,Humidity,HourlyPrecipIn,Conditions,Clouds,dailyrainin,SoftwareType,DateUTC
2014-01-28 00:01:00,4.9,-9.7,30.36,SSW,209,1.0,2.0,50,0.00,,---,0.00,VWS V14.01,2014-01-28 06:01:00,
2014-01-28 00:06:00,5.1,-9.5,30.36,SSW,204,1.0,3.0,50,0.00,,---,0.00,VWS V14.01,2014-01-28 06:06:00,
2014-01-28 00:11:00,5.1,-9.9,30.36,SW,232,1.0,3.0,49,0.00,,---,0.00,VWS V14.01,2014-01-28 06:11:00,
2014-01-28 00:16:00,5.4,-10.0,30.36,SW,217,1.0,4.0,48,0.00,,---,0.00,VWS V14.01,2014-01-28 06:16:00,
2014-01-28 00:21:00,5.5,-9.9,30.36,SSW,213,2.0,4.0,48,0.00,,---,0.00,VWS V14.01,2014-01-28 06:21:00,
2014-01-28 00:26:00,5.6,-9.8,30.36,SSE,162,2.0,4.0,48,0.00,,---,0.00,VWS V14.01,2014-01-28 06:26:00,
2014-01-28 00:31:00,5.7,-9.7,30.36,SW,224,0.0,4.0,48,0.00,,---,0.00,VWS V14.01,2014-01-28 06:31:00,
2014-01-28 00:36:00,5.6,-9.8,30.36,SSW,208,0.0,1.0,48,0.00,,---,0.00,VWS V14.01,2014-01-28 06:36:00,
2014-01-28 00:41:00,5.5,-9.9,30.37,SSW,209,0.0,1.0,48,0.00,,---,0.00,VWS V14.01,2014-01-28 06:41:00,
2014-01-28 00:46:00,5.4,-9.6,30.37,NW,319,0.0,1.0,49,0.00,,---,0.00,VWS V14.01,2014-01-28 06:46:00,
2014-01-28 00:51:00,5.5,-9.9,30.37,WSW,245,2.0,2.0,48,0.00,,---,0.00,VWS V14.01,2014-01-28 06:51:00,
2014-01-28 00:56:00,5.5,-10.4,30.37,WSW,240,0.0,2.0,47,0.00,,---,0.00,VWS V14.01,2014-01-28 06:56:00,
2014-01-28 01:01:00,5.3,-9.7,30.37,WSW,240,0.0,0.0,49,0.00,,---,0.00,VWS V14.01,2014-01-28 07:01:00,
2014-01-28 01:06:00,4.9,-9.7,30.37,North,8,0.0,1.0,50,0.00,,---,0.00,VWS V14.01,2014-01-28 07:06:00,
2014-01-28 01:11:00,4.4,-9.3,30.37,NNE,18,0.0,1.0,52,0.00,,---,0.00,VWS V14.01,2014-01-28 07:11:00,
2014-01-28 01:16:00,4.0,-8.9,30.37,NNE,20,0.0,1.0,54,0.00,,---,0.00,VWS V14.01,2014-01-28 07:16:00,
2014-01-28 01:21:00,3.8,-9.1,30.37,NE,47,0.0,1.0,54,0.00,,---,0.00,VWS V14.01,2014-01-28 07:21:00,
2014-01-28 01:26:00,3.8,-8.8,30.37,NE,46,0.0,1.0,55,0.00,,---,0.00,VWS V14.01,2014-01-28 07:26:00,
2014-01-28 01:31:00,3.8,-8.8,30.36,NNE,23,0.0,1.0,55,0.00,,---,0.00,VWS V14.01,2014-01-28 07:31:00,
2014-01-28 01:36:00,3.8,-8.4,30.36,NNE,23,0.0,1.0,56,0.00,,---,0.00,VWS V14.01,2014-01-28 07:36:00,
2014-01-28 01:41:00,3.8,-8.4,30.36,NNE,23,0.0,1.0,56,0.00,,---,0.00,VWS V14.01,2014-01-28 07:41:00,
2014-01-28 01:46:00,3.7,-8.5,30.36,NNE,23,0.0,1.0,56,0.00,,---,0.00,VWS V14.01,2014-01-28 07:46:00,
2014-01-28 01:51:00,3.7,-8.5,30.36,NNE,23,0.0,1.0,56,0.00,,---,0.00,VWS V14.01,2014-01-28 07:51:00,
2014-01-28 01:56:00,3.7,-8.5,30.35,NNE,23,0.0,1.0,56,0.00,,---,0.00,VWS V14.01,2014-01-28 07:56:00,
2014-01-28 02:01:00,4.3,-8.3,30.35,SW,229,1.0,2.0,55,0.00,,---,0.00,VWS V14.01,2014-01-28 08:01:00,
2014-01-28 02:06:00,4.8,-9.0,30.35,SW,227,1.0,2.0,52,0.00,,---,0.00,VWS V14.01,2014-01-28 08:06:00,
2014-01-28 02:11:00,5.1,-8.7,30.35,SW,231,0.0,2.0,52,0.00,,---,0.00,VWS V14.01,2014-01-28 08:11:00,
2014-01-28 02:16:00,5.3,-8.9,30.35,WSW,250,0.0,2.0,51,0.00,,---,0.00,VWS V14.01,2014-01-28 08:16:00,
2014-01-28 02:21:00,5.6,-8.6,30.35,West,272,0.0,2.0,51,0.00,,---,0.00,VWS V14.01,2014-01-28 08:21:00,
2014-01-28 02:26:00,5.6,-9.0,30.35,SE,145,0.0,2.0,50,0.00,,---,0.00,VWS V14.01,2014-01-28 08:26:00,
2014-01-28 02:31:00,5.7,-8.9,30.35,SW,226,0.0,2.0,50,0.00,,---,0.00,VWS V14.01,2014-01-28 08:31:00,
2014-01-28 02:36:00,5.8,-8.4,30.35,SW,226,0.0,0.0,51,0.00,,---,0.00,VWS V14.01,2014-01-28 08:36:00,
2014-01-28 02:41:00,5.7,-8.5,30.34,SW,226,0.0,0.0,51,0.00,,---,0.00,VWS V14.01,2014-01-28 08:41:00,
2014-01-28 02:46:00,5.7,-8.5,30.35,SW,226,0.0,0.0,51,0.00,,---,0.00,VWS V14.01,2014-01-28 08:46:00,
2014-01-28 02:51:00,6.0,-8.2,30.34,SW,234,0.0,1.0,51,0.00,,---,0.00,VWS V14.01,2014-01-28 08:51:00,
2014-01-28 02:56:00,6.1,-8.1,30.34,SW,225,2.0,3.0,51,0.00,,---,0.00,VWS V14.01,2014-01-28 08:56:00,
2014-01-28 03:01:00,6.2,-8.1,30.34,SW,220,2.0,3.0,51,0.00,,---,0.00,VWS V14.01,2014-01-28 09:01:00,
2014-01-28 03:06:00,6.2,-8.1,30.34,SW,229,2.0,4.0,51,0.00,,---,0.00,VWS V14.01,2014-01-28 09:06:00,
2014-01-28 03:11:00,6.3,-7.9,30.34,SSW,210,3.0,4.0,51,0.00,,---,0.00,VWS V14.01,2014-01-28 09:11:00,
2014-01-28 03:16:00,6.4,-7.9,30.34,SW,220,3.0,5.0,51,0.00,,---,0.00,VWS V14.01,2014-01-28 09:16:00,
2014-01-28 03:21:00,6.5,-7.8,30.34,SW,214,2.0,5.0,51,0.00,,---,0.00,VWS V14.01,2014-01-28 09:21:00,
2014-01-28 03:26:00,6.5,-7.8,30.33,WSW,240,1.0,5.0,51,0.00,,---,0.00,VWS V14.01,2014-01-28 09:26:00,
2014-01-28 03:31:00,6.5,-7.8,30.34,SSW,206,0.0,5.0,51,0.00,,---,0.00,VWS V14.01,2014-01-28 09:31:00,
2014-01-28 03:36:00,6.4,-7.5,30.34,SW,235,0.0,2.0,52,0.00,,---,0.00,VWS V14.01,2014-01-28 09:36:00,
2014-01-28 03:41:00,6.3,-7.6,30.34,SW,235,0.0,2.0,52,0.00,,---,0.00,VWS V14.01,2014-01-28 09:41:00,
2014-01-28 03:46:00,6.2,-8.1,30.33,SW,222,0.0,2.0,51,0.00,,---,0.00,VWS V14.01,2014-01-28 09:46:00,
2014-01-28 03:51:00,6.2,-7.7,30.33,SW,214,0.0,2.0,52,0.00,,---,0.00,VWS V14.01,2014-01-28 09:51:00,
2014-01-28 03:56:00,6.0,-8.2,30.33,SSW,207,1.0,2.0,51,0.00,,---,0.00,VWS V14.01,2014-01-28 09:56:00,
2014-01-28 04:01:00,5.9,-7.9,30.33,SW,230,1.0,2.0,52,0.00,,---,0.00,VWS V14.01,2014-01-28 10:01:00,
2014-01-28 04:06:00,5.8,-8.0,30.33,SW,231,1.0,2.0,52,0.00,,---,0.00,VWS V14.01,2014-01-28 10:06:00,
2014-01-28 04:11:00,5.7,-7.7,30.33,SW,224,2.0,2.0,53,0.00,,---,0.00,VWS V14.01,2014-01-28 10:11:00,
2014-01-28 04:16:00,5.6,-7.8,30.32,WSW,246,0.0,2.0,53,0.00,,---,0.00,VWS V14.01,2014-01-28 10:16:00,
2014-01-28 04:21:00,5.6,-7.8,30.33,SW,232,0.0,2.0,53,0.00,,---,0.00,VWS V14.01,2014-01-28 10:21:00,
2014-01-28 04:26:00,5.5,-7.5,30.32,SW,217,0.0,2.0,54,0.00,,---,0.00,VWS V14.01,2014-01-28 10:26:00,
2014-01-28 04:31:00,5.4,-7.6,30.32,SW,223,0.0,2.0,54,0.00,,---,0.00,VWS V14.01,2014-01-28 10:31:00,
2014-01-28 04:36:00,5.3,-8.1,30.32,SW,216,0.0,1.0,53,0.00,,---,0.00,VWS V14.01,2014-01-28 10:36:00,
2014-01-28 04:41:00,5.4,-8.0,30.32,SW,222,1.0,1.0,53,0.00,,---,0.00,VWS V14.01,2014-01-28 10:41:00,
2014-01-28 04:46:00,5.4,-8.0,30.32,WSW,238,0.0,2.0,53,0.00,,---,0.00,VWS V14.01,2014-01-28 10:46:00,
2014-01-28 04:51:00,5.3,-7.7,30.32,WSW,238,0.0,2.0,54,0.00,,---,0.00,VWS V14.01,2014-01-28 10:51:00,
2014-01-28 04:56:00,5.2,-7.4,30.32,WSW,238,0.0,2.0,55,0.00,,---,0.00,VWS V14.01,2014-01-28 10:56:00,
2014-01-28 05:01:00,5.1,-7.5,30.32,West,264,0.0,2.0,55,0.00,,---,0.00,VWS V14.01,2014-01-28 11:01:00,
2014-01-28 05:06:00,5.0,-7.3,30.32,West,262,0.0,1.0,56,0.00,,---,0.00,VWS V14.01,2014-01-28 11:06:00,
2014-01-28 05:11:00,4.8,-7.4,30.32,WSW,247,0.0,2.0,56,0.00,,---,0.00,VWS V14.01,2014-01-28 11:11:00,
2014-01-28 05:16:00,4.7,-7.5,30.33,WSW,253,1.0,2.0,56,0.00,,---,0.00,VWS V14.01,2014-01-28 11:16:00,
2014-01-28 05:21:00,4.7,-7.2,30.33,West,267,0.0,3.0,57,0.00,,---,0.00,VWS V14.01,2014-01-28 11:21:00,
2014-01-28 05:25:00,4.4,-7.1,30.33,West,273,0.0,3.0,58,0.00,,---,0.00,VWS V14.01,2014-01-28 11:25:00,
2014-01-28 05:30:00,4.3,-7.2,30.33,West,269,0.0,3.0,58,0.00,,---,0.00,VWS V14.01,2014-01-28 11:30:00,
2014-01-28 05:35:00,4.0,-7.1,30.33,West,270,0.0,1.0,59,0.00,,---,0.00,VWS V14.01,2014-01-28 11:35:00,
2014-01-28 05:40:00,4.0,-7.1,30.33,WSW,257,0.0,1.0,59,0.00,,---,0.00,VWS V14.01,2014-01-28 11:40:00,
2014-01-28 05:45:00,4.0,-7.1,30.33,WSW,252,0.0,1.0,59,0.00,,---,0.00,VWS V14.01,2014-01-28 11:45:00,
2014-01-28 05:50:00,3.9,-7.2,30.33,West,262,0.0,1.0,59,0.00,,---,0.00,VWS V14.01,2014-01-28 11:50:00,
2014-01-28 05:55:00,3.7,-7.4,30.33,WSW,248,1.0,1.0,59,0.00,,---,0.00,VWS V14.01,2014-01-28 11:55:00,
2014-01-28 06:00:00,3.7,-7.1,30.33,West,273,0.0,1.0,60,0.00,,---,0.00,VWS V14.01,2014-01-28 12:00:00,
2014-01-28 06:05:00,3.6,-7.2,30.33,West,271,0.0,1.0,60,0.00,,---,0.00,VWS V14.01,2014-01-28 12:05:00,
2014-01-28 06:10:00,3.5,-6.9,30.33,WNW,295,1.0,1.0,61,0.00,,---,0.00,VWS V14.01,2014-01-28 12:10:00,
2014-01-28 06:15:00,3.5,-7.3,30.33,WNW,283,0.0,1.0,60,0.00,,---,0.00,VWS V14.01,2014-01-28 12:15:00,
2014-01-28 06:20:00,3.5,-6.9,30.33,NW,318,0.0,2.0,61,0.00,,---,0.00,VWS V14.01,2014-01-28 12:20:00,
2014-01-28 06:25:00,3.5,-6.6,30.33,West,265,0.0,2.0,62,0.00,,---,0.00,VWS V14.01,2014-01-28 12:25:00,
2014-01-28 06:30:00,3.6,-6.8,30.33,WNW,289,1.0,2.0,61,0.00,,---,0.00,VWS V14.01,2014-01-28 12:30:00,
2014-01-28 06:35:00,3.4,-7.0,30.33,WNW,299,1.0,2.0,61,0.00,,---,0.00,VWS V14.01,2014-01-28 12:35:00,
2014-01-28 06:40:00,3.5,-6.9,30.33,WNW,298,1.0,2.0,61,0.00,,---,0.00,VWS V14.01,2014-01-28 12:40:00,
2014-01-28 06:45:00,3.5,-6.9,30.33,WNW,288,0.0,2.0,61,0.00,,---,0.00,VWS V14.01,2014-01-28 12:45:00,
2014-01-28 06:50:00,3.5,-6.9,30.33,WNW,283,0.0,2.0,61,0.00,,---,0.00,VWS V14.01,2014-01-28 12:50:00,
2014-01-28 06:55:00,3.5,-6.6,30.33,NW,311,0.0,2.0,62,0.00,,---,0.00,VWS V14.01,2014-01-28 12:55:00,
2014-01-28 07:00:00,3.5,-6.9,30.34,WNW,289,0.0,2.0,61,0.00,,---,0.00,VWS V14.01,2014-01-28 13:00:00,
2014-01-28 07:05:00,3.3,-6.4,30.34,NW,309,1.0,3.0,63,0.00,,---,0.00,VWS V14.01,2014-01-28 13:05:00,
2014-01-28 07:10:00,3.2,-6.9,30.34,West,278,1.0,3.0,62,0.00,,---,0.00,VWS V14.01,2014-01-28 13:10:00,
2014-01-28 07:15:00,3.0,-6.7,30.34,West,276,1.0,3.0,63,0.00,,---,0.00,VWS V14.01,2014-01-28 13:15:00,
2014-01-28 07:20:00,2.8,-6.9,30.34,WNW,293,0.0,3.0,63,0.00,,---,0.00,VWS V14.01,2014-01-28 13:20:00,
2014-01-28 07:25:00,2.5,-6.9,30.34,WSW,242,1.0,3.0,64,0.00,,---,0.00,VWS V14.01,2014-01-28 13:25:00,
2014-01-28 07:30:00,2.5,-6.6,30.35,NW,320,1.0,3.0,65,0.00,,---,0.00,VWS V14.01,2014-01-28 13:30:00,
2014-01-28 07:35:00,2.5,-6.9,30.35,West,268,2.0,3.0,64,0.00,,---,0.00,VWS V14.01,2014-01-28 13:35:00,
2014-01-28 07:40:00,2.4,-6.7,30.34,West,272,0.0,3.0,65,0.00,,---,0.00,VWS V14.01,2014-01-28 13:40:00,
2014-01-28 07:45:00,2.3,-6.8,30.35,WNW,303,0.0,3.0,65,0.00,,---,0.00,VWS V14.01,2014-01-28 13:45:00,
2014-01-28 07:50:00,2.3,-6.4,30.35,NW,304,0.0,3.0,66,0.00,,---,0.00,VWS V14.01,2014-01-28 13:50:00,
2014-01-28 07:55:00,2.3,-6.8,30.35,WNW,291,0.0,3.0,65,0.00,,---,0.00,VWS V14.01,2014-01-28 13:55:00,
2014-01-28 08:00:00,2.2,-6.5,30.35,WNW,293,0.0,3.0,66,0.00,,---,0.00,VWS V14.01,2014-01-28 14:00:00,
2014-01-28 08:05:00,2.1,-6.6,30.36,WNW,294,1.0,2.0,66,0.00,,---,0.00,VWS V14.01,2014-01-28 14:05:00,
2014-01-28 08:10:00,2.2,-6.5,30.36,WNW,286,0.0,2.0,66,0.00,,---,0.00,VWS V14.01,2014-01-28 14:10:00,
2014-01-28 08:15:00,2.6,-6.5,30.36,WNW,292,1.0,2.0,65,0.00,,---,0.00,VWS V14.01,2014-01-28 14:15:00,
2014-01-28 08:20:00,3.0,-6.4,30.36,West,274,0.0,3.0,64,0.00,,---,0.00,VWS V14.01,2014-01-28 14:20:00,
2014-01-28 08:25:00,3.3,-6.1,30.36,WNW,283,1.0,3.0,64,0.00,,---,0.00,VWS V14.01,2014-01-28 14:25:00,
2014-01-28 08:30:00,3.6,-5.8,30.36,West,279,1.0,3.0,64,0.00,,---,0.00,VWS V14.01,2014-01-28 14:30:00,
2014-01-28 08:35:00,3.8,-5.6,30.36,WNW,289,1.0,3.0,64,0.00,,---,0.00,VWS V14.01,2014-01-28 14:35:00,
2014-01-28 08:40:00,4.0,-5.8,30.36,West,271,2.0,4.0,63,0.00,,---,0.00,VWS V14.01,2014-01-28 14:40:00,
2014-01-28 08:45:00,4.1,-5.7,30.36,West,280,1.0,4.0,63,0.00,,---,0.00,VWS V14.01,2014-01-28 14:45:00,
2014-01-28 08:50:00,4.4,-5.4,30.36,West,266,2.0,4.0,63,0.00,,---,0.00,VWS V14.01,2014-01-28 14:50:00,
2014-01-28 08:55:00,4.8,-5.0,30.36,West,274,2.0,5.0,63,0.00,,---,0.00,VWS V14.01,2014-01-28 14:55:00,
2014-01-28 09:00:00,5.2,-4.3,30.36,West,271,3.0,5.0,64,0.00,,---,0.00,VWS V14.01,2014-01-28 15:00:00,
2014-01-28 09:05:00,5.8,-3.4,30.36,West,278,2.0,5.0,65,0.00,,---,0.00,VWS V14.01,2014-01-28 15:05:00,
2014-01-28 09:10:00,5.8,-3.7,30.37,WNW,294,4.0,8.0,64,0.00,,---,0.00,VWS V14.01,2014-01-28 15:10:00,
2014-01-28 09:15:00,6.3,-2.9,30.37,WNW,291,3.0,8.0,65,0.00,,---,0.00,VWS V14.01,2014-01-28 15:15:00,
2014-01-28 09:20:00,7.1,-2.2,30.37,WNW,283,5.0,8.0,65,0.00,,---,0.00,VWS V14.01,2014-01-28 15:20:00,
2014-01-28 09:25:00,7.8,-1.8,30.37,West,268,1.0,8.0,64,0.00,,---,0.00,VWS V14.01,2014-01-28 15:25:00,
2014-01-28 09:30:00,8.4,-1.3,30.37,NW,314,2.0,8.0,64,0.00,,---,0.00,VWS V14.01,2014-01-28 15:30:00,
2014-01-28 09:35:00,9.2,-0.5,30.37,NW,304,1.0,5.0,64,0.00,,---,0.00,VWS V14.01,2014-01-28 15:35:00,
2014-01-28 09:40:00,9.9,-0.5,30.36,West,271,5.0,7.0,62,0.00,,---,0.00,VWS V14.01,2014-01-28 15:40:00,
2014-01-28 09:45:00,10.5,-0.3,30.37,West,281,3.0,7.0,61,0.00,,---,0.00,VWS V14.01,2014-01-28 15:45:00,
2014-01-28 09:50:00,11.4,-0.1,30.36,WNW,297,2.0,7.0,59,0.00,,---,0.00,VWS V14.01,2014-01-28 15:50:00,
2014-01-28 09:55:00,11.9,-0.8,30.36,WNW,290,4.0,7.0,56,0.00,,---,0.00,VWS V14.01,2014-01-28 15:55:00,
2014-01-28 10:00:00,12.3,-1.2,30.36,West,261,2.0,7.0,54,0.00,,---,0.00,VWS V14.01,2014-01-28 16:00:00,
2014-01-28 10:05:00,12.8,-1.5,30.36,West,266,2.0,8.0,52,0.00,,---,0.00,VWS V14.01,2014-01-28 16:05:00,
2014-01-28 10:10:00,12.9,-1.8,30.36,NW,311,3.0,8.0,51,0.00,,---,0.00,VWS V14.01,2014-01-28 16:10:00,
2014-01-28 10:15:00,13.0,-2.6,30.36,WNW,295,3.0,8.0,49,0.00,,---,0.00,VWS V14.01,2014-01-28 16:15:00,
2014-01-28 10:20:00,13.2,-2.0,30.36,NW,307,8.0,9.0,50,0.00,,---,0.00,VWS V14.01,2014-01-28 16:20:00,
2014-01-28 10:25:00,13.3,-2.3,30.36,NW,326,6.0,9.0,49,0.00,,---,0.00,VWS V14.01,2014-01-28 16:25:00,
2014-01-28 10:30:00,13.5,-2.1,30.36,SW,215,1.0,9.0,49,0.00,,---,0.00,VWS V14.01,2014-01-28 16:30:00,
2014-01-28 10:35:00,13.3,-2.3,30.36,WNW,295,6.0,9.0,49,0.00,,---,0.00,VWS V14.01,2014-01-28 16:35:00,
2014-01-28 10:40:00,13.4,-2.2,30.36,WNW,289,3.0,9.0,49,0.00,,---,0.00,VWS V14.01,2014-01-28 16:40:00,
2014-01-28 10:45:00,14.0,-1.6,30.35,NW,323,3.0,9.0,49,0.00,,---,0.00,VWS V14.01,2014-01-28 16:45:00,
2014-01-28 10:50:00,14.2,-1.9,30.36,West,279,2.0,9.0,48,0.00,,---,0.00,VWS V14.01,2014-01-28 16:50:00,
2014-01-28 10:55:00,15.1,-1.5,30.35,WNW,288,1.0,9.0,47,0.00,,---,0.00,VWS V14.01,2014-01-28 16:55:00,
2014-01-28 11:00:00,15.4,-1.7,30.35,WNW,290,2.0,9.0,46,0.00,,---,0.00,VWS V14.01,2014-01-28 17:00:00,
2014-01-28 11:05:00,15.6,-2.4,30.35,NW,312,1.0,8.0,44,0.00,,---,0.00,VWS V14.01,2014-01-28 17:05:00,
2014-01-28 11:10:00,15.4,-2.1,30.35,NW,304,5.0,8.0,45,0.00,,---,0.00,VWS V14.01,2014-01-28 17:10:00,
2014-01-28 11:15:00,15.6,-2.0,30.35,NW,310,4.0,8.0,45,0.00,,---,0.00,VWS V14.01,2014-01-28 17:15:00,
2014-01-28 11:20:00,15.7,-1.9,30.34,NNW,330,3.0,8.0,45,0.00,,---,0.00,VWS V14.01,2014-01-28 17:20:00,
2014-01-28 11:25:00,16.1,-1.5,30.34,WSW,258,2.0,8.0,45,0.00,,---,0.00,VWS V14.01,2014-01-28 17:25:00,
2014-01-28 11:30:00,16.6,-1.5,30.34,NW,311,6.0,10.0,44,0.00,,---,0.00,VWS V14.01,2014-01-28 17:30:00,
2014-01-28 11:35:00,16.8,-1.3,30.34,WNW,290,8.0,11.0,44,0.00,,---,0.00,VWS V14.01,2014-01-28 17:35:00,
2014-01-28 11:40:00,17.3,-0.9,30.33,WNW,296,5.0,11.0,44,0.00,,---,0.00,VWS V14.01,2014-01-28 17:40:00,
2014-01-28 11:45:00,17.5,-1.2,30.33,NW,308,4.0,11.0,43,0.00,,---,0.00,VWS V14.01,2014-01-28 17:45:00,
2014-01-28 11:50:00,17.4,-1.8,30.33,NW,323,4.0,12.0,42,0.00,,---,0.00,VWS V14.01,2014-01-28 17:50:00,
2014-01-28 11:55:00,17.3,-1.9,30.33,North,356,3.0,12.0,42,0.00,,---,0.00,VWS V14.01,2014-01-28 17:55:00,
2014-01-28 12:00:00,17.6,-1.6,30.33,NNW,335,3.0,12.0,42,0.00,,---,0.00,VWS V14.01,2014-01-28 18:00:00,
2014-01-28 12:05:00,17.9,-1.3,30.32,NW,319,2.0,8.0,42,0.00,,---,0.00,VWS V14.01,2014-01-28 18:05:00,
2014-01-28 12:10:00,18.0,-1.2,30.32,NW,307,7.0,13.0,42,0.00,,---,0.00,VWS V14.01,2014-01-28 18:10:00,
2014-01-28 12:15:00,18.1,-1.1,30.31,West,274,6.0,13.0,42,0.00,,---,0.00,VWS V14.01,2014-01-28 18:15:00,
2014-01-28 12:20:00,18.3,-1.5,30.31,WNW,303,5.0,15.0,41,0.00,,---,0.00,VWS V14.01,2014-01-28 18:20:00,
2014-01-28 12:25:00,18.1,-1.1,30.31,NW,307,9.0,15.0,42,0.00,,---,0.00,VWS V14.01,2014-01-28 18:25:00,
2014-01-28 12:30:00,18.1,-1.6,30.31,WNW,295,9.0,15.0,41,0.00,,---,0.00,VWS V14.01,2014-01-28 18:30:00,
2014-01-28 12:35:00,18.0,-1.2,30.30,WNW,295,7.0,13.0,42,0.00,,---,0.00,VWS V14.01,2014-01-28 18:35:00,
2014-01-28 12:40:00,18.2,-1.0,30.30,WNW,286,6.0,15.0,42,0.00,,---,0.00,VWS V14.01,2014-01-28 18:40:00,
2014-01-28 12:45:00,18.3,-1.5,30.29,NNW,339,5.0,17.0,41,0.00,,---,0.00,VWS V14.01,2014-01-28 18:45:00,
2014-01-28 12:50:00,18.3,-1.5,30.29,NW,310,4.0,17.0,41,0.00,,---,0.00,VWS V14.01,2014-01-28 18:50:00,
2014-01-28 12:55:00,18.7,-0.6,30.28,West,280,6.0,17.0,42,0.00,,---,0.00,VWS V14.01,2014-01-28 18:55:00,
2014-01-28 13:00:00,18.6,-1.2,30.28,West,271,6.0,17.0,41,0.00,,---,0.00,VWS V14.01,2014-01-28 19:00:00,
2014-01-28 13:05:00,19.2,-0.6,30.27,WNW,287,6.0,11.0,41,0.00,,---,0.00,VWS V14.01,2014-01-28 19:05:00,
2014-01-28 13:10:00,19.6,-0.8,30.27,NW,318,2.0,11.0,40,0.00,,---,0.00,VWS V14.01,2014-01-28 19:10:00,
2014-01-28 13:15:00,19.8,-0.6,30.27,WNW,292,6.0,13.0,40,0.00,,---,0.00,VWS V14.01,2014-01-28 19:15:00,
2014-01-28 13:20:00,19.7,-0.7,30.27,NW,307,7.0,13.0,40,0.00,,---,0.00,VWS V14.01,2014-01-28 19:20:00,
2014-01-28 13:25:00,19.7,-0.7,30.27,West,267,6.0,17.0,40,0.00,,---,0.00,VWS V14.01,2014-01-28 19:25:00,
2014-01-28 13:30:00,20.4,-0.1,30.26,West,279,4.0,17.0,40,0.00,,---,0.00,VWS V14.01,2014-01-28 19:30:00,
2014-01-28 13:35:00,20.1,-0.9,30.26,WNW,302,4.0,12.0,39,0.00,,---,0.00,VWS V14.01,2014-01-28 19:35:00,
2014-01-28 13:40:00,19.5,-0.9,30.26,NW,319,5.0,12.0,40,0.00,,---,0.00,VWS V14.01,2014-01-28 19:40:00,
2014-01-28 13:45:00,20.2,-0.8,30.25,WNW,295,16.0,17.0,39,0.00,,---,0.00,VWS V14.01,2014-01-28 19:45:00,
2014-01-28 13:50:00,19.9,-1.0,30.25,NW,314,3.0,17.0,39,0.00,,---,0.00,VWS V14.01,2014-01-28 19:50:00,
2014-01-28 13:55:00,20.4,-0.6,30.25,West,271,5.0,17.0,39,0.00,,---,0.00,VWS V14.01,2014-01-28 19:55:00,
2014-01-28 14:00:00,20.4,-0.6,30.24,WNW,286,7.0,17.0,39,0.00,,---,0.00,VWS V14.01,2014-01-28 20:00:00,
2014-01-28 14:05:00,20.4,-0.6,30.24,NW,307,5.0,15.0,39,0.00,,---,0.00,VWS V14.01,2014-01-28 20:05:00,
2014-01-28 14:10:00,20.4,-0.1,30.24,NNW,346,2.0,15.0,40,0.00,,---,0.00,VWS V14.01,2014-01-28 20:10:00,
2014-01-28 14:15:00,20.4,-0.1,30.23,NE,35,1.0,15.0,40,0.00,,---,0.00,VWS V14.01,2014-01-28 20:15:00,
2014-01-28 14:20:00,21.3,0.2,30.23,WNW,302,3.0,15.0,39,0.00,,---,0.00,VWS V14.01,2014-01-28 20:20:00,
2014-01-28 14:25:00,20.9,-0.2,30.22,West,267,9.0,15.0,39,0.00,,---,0.00,VWS V14.01,2014-01-28 20:25:00,
2014-01-28 14:30:00,21.0,-0.1,30.22,SW,219,6.0,15.0,39,0.00,,---,0.00,VWS V14.01,2014-01-28 20:30:00,
2014-01-28 14:35:00,21.0,-0.1,30.22,West,271,3.0,9.0,39,0.00,,---,0.00,VWS V14.01,2014-01-28 20:35:00,
2014-01-28 14:40:00,21.1,0.0,30.22,WNW,293,7.0,13.0,39,0.00,,---,0.00,VWS V14.01,2014-01-28 20:40:00,
2014-01-28 14:45:00,21.5,-0.2,30.22,NW,320,4.0,13.0,38,0.00,,---,0.00,VWS V14.01,2014-01-28 20:45:00,
2014-01-28 14:50:00,21.7,0.0,30.22,WNW,292,11.0,15.0,38,0.00,,---,0.00,VWS V14.01,2014-01-28 20:50:00,
2014-01-28 14:55:00,20.7,-0.3,30.21,WNW,300,5.0,15.0,39,0.00,,---,0.00,VWS V14.01,2014-01-28 20:55:00,
2014-01-28 15:00:00,20.6,0.1,30.21,NW,304,4.0,15.0,40,0.00,,---,0.00,VWS V14.01,2014-01-28 21:00:00,
2014-01-28 15:05:00,20.9,-0.2,30.21,NW,319,1.0,5.0,39,0.00,,---,0.00,VWS V14.01,2014-01-28 21:05:00,
2014-01-28 15:10:00,21.1,0.0,30.21,NW,323,4.0,8.0,39,0.00,,---,0.00,VWS V14.01,2014-01-28 21:10:00,
2014-01-28 15:15:00,21.6,0.5,30.20,West,274,3.0,9.0,39,0.00,,---,0.00,VWS V14.01,2014-01-28 21:15:00,
2014-01-28 15:20:00,22.0,0.3,30.20,NW,319,5.0,12.0,38,0.00,,---,0.00,VWS V14.01,2014-01-28 21:20:00,
2014-01-28 15:25:00,21.9,0.2,30.20,West,268,9.0,12.0,38,0.00,,---,0.00,VWS V14.01,2014-01-28 21:25:00,
2014-01-28 15:30:00,21.9,0.2,30.20,WNW,302,6.0,15.0,38,0.00,,---,0.00,VWS V14.01,2014-01-28 21:30:00,
2014-01-28 15:35:00,22.2,-0.1,30.20,NNW,331,3.0,14.0,37,0.00,,---,0.00,VWS V14.01,2014-01-28 21:35:00,
2014-01-28 15:40:00,22.4,0.1,30.20,NNW,336,5.0,14.0,37,0.00,,---,0.00,VWS V14.01,2014-01-28 21:40:00,
2014-01-28 15:45:00,22.8,-0.1,30.20,NW,316,5.0,14.0,36,0.00,,---,0.00,VWS V14.01,2014-01-28 21:45:00,
2014-01-28 15:50:00,22.8,-0.1,30.20,NNW,328,7.0,14.0,36,0.00,,---,0.00,VWS V14.01,2014-01-28 21:50:00,
2014-01-28 15:55:00,22.5,-0.4,30.20,NNW,333,2.0,14.0,36,0.00,,---,0.00,VWS V14.01,2014-01-28 21:55:00,
2014-01-28 16:00:00,22.6,0.3,30.19,West,262,2.0,14.0,37,0.00,,---,0.00,VWS V14.01,2014-01-28 22:00:00,
2014-01-28 16:05:00,22.8,-0.1,30.19,WNW,285,7.0,11.0,36,0.00,,---,0.00,VWS V14.01,2014-01-28 22:05:00,
2014-01-28 16:10:00,22.8,-0.7,30.19,NW,315,4.0,11.0,35,0.00,,---,0.00,VWS V14.01,2014-01-28 22:10:00,
2014-01-28 16:15:00,23.0,0.0,30.19,NNW,329,2.0,11.0,36,0.00,,---,0.00,VWS V14.01,2014-01-28 22:15:00,
2014-01-28 16:20:00,22.7,-0.2,30.18,NW,313,1.0,11.0,36,0.00,,---,0.00,VWS V14.01,2014-01-28 22:20:00,
2014-01-28 16:25:00,22.7,-0.2,30.18,WNW,295,3.0,11.0,36,0.00,,---,0.00,VWS V14.01,2014-01-28 22:25:00,
2014-01-28 16:30:00,22.8,-0.7,30.18,North,356,3.0,11.0,35,0.00,,---,0.00,VWS V14.01,2014-01-28 22:30:00,
2014-01-28 16:35:00,23.0,-0.6,30.18,NNW,344,2.0,6.0,35,0.00,,---,0.00,VWS V14.01,2014-01-28 22:35:00,
2014-01-28 16:40:00,23.1,-0.5,30.18,NW,316,0.0,6.0,35,0.00,,---,0.00,VWS V14.01,2014-01-28 22:40:00,
2014-01-28 16:45:00,22.8,-0.7,30.18,NW,325,4.0,8.0,35,0.00,,---,0.00,VWS V14.01,2014-01-28 22:45:00,
2014-01-28 16:50:00,22.6,-0.9,30.18,NW,319,2.0,9.0,35,0.00,,---,0.00,VWS V14.01,2014-01-28 22:50:00,
2014-01-28 16:55:00,22.7,-0.8,30.17,NW,304,2.0,9.0,35,0.00,,---,0.00,VWS V14.01,2014-01-28 22:55:00,
2014-01-28 17:00:00,22.5,-1.0,30.17,NW,317,2.0,9.0,35,0.00,,---,0.00,VWS V14.01,2014-01-28 23:00:00,
2014-01-28 17:05:00,22.2,-1.9,30.18,NW,307,4.0,8.0,34,0.00,,---,0.00,VWS V14.01,2014-01-28 23:05:00,
2014-01-28 17:10:00,22.2,-1.9,30.18,NNW,335,2.0,8.0,34,0.00,,---,0.00,VWS V14.01,2014-01-28 23:10:00,
2014-01-28 17:15:00,21.9,-2.2,30.18,WNW,302,3.0,8.0,34,0.00,,---,0.00,VWS V14.01,2014-01-28 23:15:00,
2014-01-28 17:20:00,21.7,-1.7,30.17,West,278,2.0,8.0,35,0.00,,---,0.00,VWS V14.01,2014-01-28 23:20:00,
2014-01-28 17:25:00,21.5,-1.9,30.17,WNW,289,3.0,9.0,35,0.00,,---,0.00,VWS V14.01,2014-01-28 23:25:00,
2014-01-28 17:30:00,21.3,-2.1,30.17,WNW,302,1.0,9.0,35,0.00,,---,0.00,VWS V14.01,2014-01-28 23:30:00,
2014-01-28 17:35:00,21.1,-1.7,30.17,WNW,298,1.0,3.0,36,0.00,,---,0.00,VWS V14.01,2014-01-28 23:35:00,
2014-01-28 17:40:00,20.9,-1.8,30.17,WNW,297,0.0,4.0,36,0.00,,---,0.00,VWS V14.01,2014-01-28 23:40:00,
2014-01-28 17:45:00,20.7,-2.0,30.17,WNW,284,1.0,5.0,36,0.00,,---,0.00,VWS V14.01,2014-01-28 23:45:00,
2014-01-28 17:50:00,20.5,-2.2,30.17,NW,318,2.0,5.0,36,0.00,,---,0.00,VWS V14.01,2014-01-28 23:50:00,
2014-01-28 17:55:00,20.3,-2.4,30.17,NW,312,1.0,5.0,36,0.00,,---,0.00,VWS V14.01,2014-01-28 23:55:00,
2014-01-28 18:00:00,20.1,-2.0,30.17,NW,306,0.0,5.0,37,0.00,,---,0.00,VWS V14.01,2014-01-29 00:00:00,
2014-01-28 18:05:00,19.8,-2.2,30.17,NW,306,1.0,1.0,37,0.00,,---,0.00,VWS V14.01,2014-01-29 00:05:00,
2014-01-28 18:10:00,19.6,-1.9,30.17,NW,306,0.0,1.0,38,0.00,,---,0.00,VWS V14.01,2014-01-29 00:10:00,
2014-01-28 18:15:00,19.3,-2.1,30.16,NW,306,0.0,1.0,38,0.00,,---,0.00,VWS V14.01,2014-01-29 00:15:00,
2014-01-28 18:20:00,18.9,-2.0,30.16,NW,306,0.0,1.0,39,0.00,,---,0.00,VWS V14.01,2014-01-29 00:20:00,
2014-01-28 18:25:00,18.4,-2.4,30.16,NW,306,0.0,1.0,39,0.00,,---,0.00,VWS V14.01,2014-01-29 00:25:00,
2014-01-28 18:29:00,18.1,-2.2,30.16,NW,306,0.0,1.0,40,0.00,,---,0.00,VWS V14.01,2014-01-29 00:29:00,
2014-01-28 18:34:00,17.7,-2.5,30.16,NW,306,0.0,0.0,40,0.00,,---,0.00,VWS V14.01,2014-01-29 00:34:00,
2014-01-28 18:39:00,17.0,-2.6,30.16,NW,306,0.0,0.0,41,0.00,,---,0.00,VWS V14.01,2014-01-29 00:39:00,
2014-01-28 18:44:00,16.4,-2.7,30.16,NW,306,0.0,0.0,42,0.00,,---,0.00,VWS V14.01,2014-01-29 00:44:00,
2014-01-28 18:49:00,15.9,-2.6,30.16,NW,306,0.0,0.0,43,0.00,,---,0.00,VWS V14.01,2014-01-29 00:49:00,
2014-01-28 18:54:00,15.8,-2.7,30.16,NW,306,0.0,0.0,43,0.00,,---,0.00,VWS V14.01,2014-01-29 00:54:00,
2014-01-28 18:59:00,15.7,-2.8,30.16,NW,306,0.0,0.0,43,0.00,,---,0.00,VWS V14.01,2014-01-29 00:59:00,
2014-01-28 19:04:00,15.6,-2.4,30.16,NW,306,0.0,0.0,44,0.00,,---,0.00,VWS V14.01,2014-01-29 01:04:00,
2014-01-28 19:09:00,15.8,-1.8,30.16,NW,306,0.0,0.0,45,0.00,,---,0.00,VWS V14.01,2014-01-29 01:09:00,
2014-01-28 19:14:00,15.7,-2.3,30.16,NW,306,0.0,0.0,44,0.00,,---,0.00,VWS V14.01,2014-01-29 01:14:00,
2014-01-28 19:19:00,15.4,-2.1,30.16,NW,306,0.0,0.0,45,0.00,,---,0.00,VWS V14.01,2014-01-29 01:19:00,
2014-01-28 19:24:00,15.4,-1.7,30.15,NW,306,0.0,0.0,46,0.00,,---,0.00,VWS V14.01,2014-01-29 01:24:00,
2014-01-28 19:29:00,15.1,-2.0,30.16,NW,306,0.0,0.0,46,0.00,,---,0.00,VWS V14.01,2014-01-29 01:29:00,
2014-01-28 19:34:00,14.8,-1.8,30.15,NW,307,0.0,0.0,47,0.00,,---,0.00,VWS V14.01,2014-01-29 01:34:00,
2014-01-28 19:39:00,14.4,-1.7,30.15,NW,306,0.0,0.0,48,0.00,,---,0.00,VWS V14.01,2014-01-29 01:39:00,
2014-01-28 19:44:00,14.3,-1.4,30.15,NW,306,0.0,0.0,49,0.00,,---,0.00,VWS V14.01,2014-01-29 01:44:00,
2014-01-28 19:49:00,14.3,-1.4,30.15,NW,306,0.0,0.0,49,0.00,,---,0.00,VWS V14.01,2014-01-29 01:49:00,
2014-01-28 19:54:00,14.0,-1.6,30.15,NW,306,0.0,0.0,49,0.00,,---,0.00,VWS V14.01,2014-01-29 01:54:00,
2014-01-28 19:59:00,13.8,-1.4,30.15,NW,306,0.0,0.0,50,0.00,,---,0.00,VWS V14.01,2014-01-29 01:59:00,
2014-01-28 20:04:00,13.4,-1.8,30.15,NW,306,0.0,0.0,50,0.00,,---,0.00,VWS V14.01,2014-01-29 02:04:00,
2014-01-28 20:09:00,13.2,-1.5,30.15,NW,306,0.0,0.0,51,0.00,,---,0.00,VWS V14.01,2014-01-29 02:09:00,
2014-01-28 20:14:00,13.2,-1.5,30.15,NW,306,0.0,0.0,51,0.00,,---,0.00,VWS V14.01,2014-01-29 02:14:00,
2014-01-28 20:19:00,13.2,-1.1,30.15,SW,234,0.0,0.0,52,0.00,,---,0.00,VWS V14.01,2014-01-29 02:19:00,
2014-01-28 20:24:00,13.1,-1.2,30.15,SW,234,0.0,0.0,52,0.00,,---,0.00,VWS V14.01,2014-01-29 02:24:00,
2014-01-28 20:29:00,13.0,-0.9,30.15,SW,234,0.0,0.0,53,0.00,,---,0.00,VWS V14.01,2014-01-29 02:29:00,
2014-01-28 20:34:00,12.8,-1.1,30.15,SW,234,0.0,0.0,53,0.00,,---,0.00,VWS V14.01,2014-01-29 02:34:00,
2014-01-28 20:39:00,12.6,-0.9,30.15,SW,234,0.0,0.0,54,0.00,,---,0.00,VWS V14.01,2014-01-29 02:39:00,
2014-01-28 20:44:00,12.6,-0.9,30.15,SW,234,0.0,0.0,54,0.00,,---,0.00,VWS V14.01,2014-01-29 02:44:00,
2014-01-28 20:49:00,12.8,-1.1,30.15,SW,223,0.0,1.0,53,0.00,,---,0.00,VWS V14.01,2014-01-29 02:49:00,
2014-01-28 20:54:00,13.0,-1.3,30.15,SW,219,1.0,1.0,52,0.00,,---,0.00,VWS V14.01,2014-01-29 02:54:00,
2014-01-28 20:59:00,13.3,-1.0,30.14,SSE,167,1.0,1.0,52,0.00,,---,0.00,VWS V14.01,2014-01-29 02:59:00,
2014-01-28 21:04:00,13.1,-1.6,30.15,South,189,1.0,2.0,51,0.00,,---,0.00,VWS V14.01,2014-01-29 03:04:00,
2014-01-28 21:09:00,13.0,-1.3,30.14,SW,214,1.0,2.0,52,0.00,,---,0.00,VWS V14.01,2014-01-29 03:09:00,
2014-01-28 21:14:00,12.9,-1.4,30.14,SSW,210,0.0,2.0,52,0.00,,---,0.00,VWS V14.01,2014-01-29 03:14:00,
2014-01-28 21:18:00,12.8,-1.1,30.14,SSW,203,1.0,2.0,53,0.00,,---,0.00,VWS V14.01,2014-01-29 03:18:00,
2014-01-28 21:23:00,12.8,-1.1,30.14,SSW,206,1.0,2.0,53,0.00,,---,0.00,VWS V14.01,2014-01-29 03:23:00,
2014-01-28 21:28:00,12.9,-1.4,30.14,South,174,0.0,2.0,52,0.00,,---,0.00,VWS V14.01,2014-01-29 03:28:00,
2014-01-28 21:33:00,12.8,-1.1,30.14,South,169,0.0,0.0,53,0.00,,---,0.00,VWS V14.01,2014-01-29 03:33:00,
2014-01-28 21:38:00,12.8,-1.1,30.14,South,176,0.0,0.0,53,0.00,,---,0.00,VWS V14.01,2014-01-29 03:38:00,
2014-01-28 21:43:00,12.7,-1.2,30.14,South,176,0.0,1.0,53,0.00,,---,0.00,VWS V14.01,2014-01-29 03:43:00,
2014-01-28 21:48:00,12.7,-0.8,30.14,South,173,0.0,1.0,54,0.00,,---,0.00,VWS V14.01,2014-01-29 03:48:00,
2014-01-28 21:53:00,12.4,-1.1,30.14,South,173,0.0,1.0,54,0.00,,---,0.00,VWS V14.01,2014-01-29 03:53:00,
2014-01-28 21:58:00,12.2,-0.9,30.14,South,173,0.0,1.0,55,0.00,,---,0.00,VWS V14.01,2014-01-29 03:58:00,
2014-01-28 22:03:00,11.9,-0.8,30.14,South,173,0.0,1.0,56,0.00,,---,0.00,VWS V14.01,2014-01-29 04:03:00,
2014-01-28 22:08:00,11.9,-0.8,30.14,SSW,208,1.0,2.0,56,0.00,,---,0.00,VWS V14.01,2014-01-29 04:08:00,
2014-01-28 22:13:00,11.8,-0.9,30.14,SSW,208,1.0,2.0,56,0.00,,---,0.00,VWS V14.01,2014-01-29 04:13:00,
2014-01-28 22:18:00,11.7,-1.0,30.14,SSW,208,0.0,2.0,56,0.00,,---,0.00,VWS V14.01,2014-01-29 04:18:00,
2014-01-28 22:23:00,11.5,-0.8,30.14,SSW,213,0.0,2.0,57,0.00,,---,0.00,VWS V14.01,2014-01-29 04:23:00,
2014-01-28 22:28:00,11.2,-0.7,30.13,SW,222,1.0,2.0,58,0.00,,---,0.00,VWS V14.01,2014-01-29 04:28:00,
2014-01-28 22:33:00,11.1,-0.8,30.13,SW,221,1.0,1.0,58,0.00,,---,0.00,VWS V14.01,2014-01-29 04:33:00,
2014-01-28 22:38:00,11.1,-1.1,30.13,SW,216,0.0,2.0,57,0.00,,---,0.00,VWS V14.01,2014-01-29 04:38:00,
2014-01-28 22:43:00,11.2,-1.4,30.13,SW,215,2.0,3.0,56,0.00,,---,0.00,VWS V14.01,2014-01-29 04:43:00,
2014-01-28 22:48:00,11.3,-1.3,30.13,SSW,213,1.0,3.0,56,0.00,,---,0.00,VWS V14.01,2014-01-29 04:48:00,
2014-01-28 22:53:00,11.4,-1.6,30.13,SW,231,1.0,3.0,55,0.00,,---,0.00,VWS V14.01,2014-01-29 04:53:00,
2014-01-28 22:58:00,11.5,-1.5,30.13,SW,214,1.0,3.0,55,0.00,,---,0.00,VWS V14.01,2014-01-29 04:58:00,
2014-01-28 23:01:00,11.5,-1.5,30.13,SW,216,1.0,3.0,55,0.00,,---,0.00,VWS V14.01,2014-01-29 05:01:00,
2014-01-28 23:02:00,11.5,-1.5,30.13,SW,222,1.0,2.0,55,0.00,,---,0.00,VWS V14.01,2014-01-29 05:02:00,
2014-01-28 23:07:00,11.6,-1.8,30.13,SW,214,1.0,3.0,54,0.00,,---,0.00,VWS V14.01,2014-01-29 05:07:00,
2014-01-28 23:12:00,11.7,-2.1,30.12,SW,226,2.0,3.0,53,0.00,,---,0.00,VWS V14.01,2014-01-29 05:12:00,
2014-01-28 23:17:00,11.8,-2.0,30.12,SSW,212,2.0,4.0,53,0.00,,---,0.00,VWS V14.01,2014-01-29 05:17:00,
2014-01-28 23:22:00,11.7,-2.1,30.12,SSW,201,1.0,4.0,53,0.00,,---,0.00,VWS V14.01,2014-01-29 05:22:00,
2014-01-28 23:27:00,11.7,-2.1,30.12,SSW,203,1.0,4.0,53,0.00,,---,0.00,VWS V14.01,2014-01-29 05:27:00,
2014-01-28 23:32:00,11.6,-2.2,30.12,SW,221,2.0,3.0,53,0.00,,---,0.00,VWS V14.01,2014-01-29 05:32:00,
2014-01-28 23:37:00,11.5,-2.3,30.11,SSW,212,2.0,3.0,53,0.00,,---,0.00,VWS V14.01,2014-01-29 05:37:00,
2014-01-28 23:42:00,11.3,-2.1,30.11,SW,214,1.0,4.0,54,0.00,,---,0.00,VWS V14.01,2014-01-29 05:42:00,
2014-01-28 23:47:00,11.1,-2.3,30.11,SSW,212,1.0,4.0,54,0.00,,---,0.00,VWS V14.01,2014-01-29 05:47:00,
2014-01-28 23:52:00,11.0,-2.0,30.11,SW,214,0.0,4.0,55,0.00,,---,0.00,VWS V14.01,2014-01-29 05:52:00,
2014-01-28 23:57:00,10.7,-2.3,30.11,SW,214,2.0,4.0,55,0.00,,---,0.00,VWS V14.01,2014-01-29 05:57:00,